Time,TemperatureF,DewpointF,PressureIn,WindDirection,WindDirectionDegrees,WindSpeedMPH,WindSpeedGustMPH,Humidity,HourlyPrecipIn,Conditions,Clouds,dailyrainin,SoftwareType,DateUTC
2013-04-30 00:03:00,53.3,50.0,28.60,SE,135,13.3,13.8,88,99.99,,,7.68,Rainwise IP-100,2013-04-30 05:03:00,
2013-04-30 00:08:00,54.3,51.0,28.59,ESE,112,12.8,17.0,89,99.99,,,25.60,Rainwise IP-100,2013-04-30 05:08:00,
2013-04-30 00:13:00,56.2,53.0,28.59,SE,135,12.6,15.2,88,99.99,,,74.24,Rainwise IP-100,2013-04-30 05:13:00,
2013-04-30 00:18:00,56.3,53.0,28.60,SE,135,7.0,12.6,86,99.99,,,99.99,Rainwise IP-100,2013-04-30 05:18:00,
2013-04-30 00:23:00,55.5,52.0,28.60,SE,135,9.8,11.7,86,99.99,,,99.99,Rainwise IP-100,2013-04-30 05:23:00,
2013-04-30 00:28:00,56.0,52.0,28.59,SE,135,9.6,11.2,87,99.99,,,99.99,Rainwise IP-100,2013-04-30 05:28:00,
2013-04-30 00:33:00,61.8,53.5,28.58,ESE,112,6.3,11.2,74,35.84,,,99.99,Rainwise IP-100,2013-04-30 05:33:00,
2013-04-30 00:38:00,61.7,53.5,28.58,ESE,112,6.8,11.7,74,99.99,,,99.99,Rainwise IP-100,2013-04-30 05:38:00,
2013-04-30 00:43:00,61.6,53.5,28.58,ESE,112,8.9,8.9,75,56.32,,,99.99,Rainwise IP-100,2013-04-30 05:43:00,
2013-04-30 00:48:00,56.9,53.0,28.58,ESE,112,8.9,11.2,86,99.99,,,99.99,Rainwise IP-100,2013-04-30 05:48:00,
2013-04-30 00:53:00,61.6,53.5,28.57,ESE,112,8.4,9.8,75,25.60,,,80.79,Rainwise IP-100,2013-04-30 05:53:00,
2013-04-30 00:58:00,56.4,53.0,28.58,SE,135,4.4,9.3,86,99.99,,,99.99,Rainwise IP-100,2013-04-30 05:58:00,
2013-04-30 01:03:00,61.7,53.5,28.56,ESE,112,6.1,10.5,75,99.99,,,99.99,Rainwise IP-100,2013-04-30 06:03:00,
2013-04-30 01:08:00,61.8,54.0,28.57,ESE,112,6.3,8.6,75,56.32,,,99.99,Rainwise IP-100,2013-04-30 06:08:00,
2013-04-30 01:13:00,57.2,53.0,28.57,ESE,112,3.0,9.8,85,99.99,,,99.99,Rainwise IP-100,2013-04-30 06:13:00,
2013-04-30 01:18:00,61.8,53.5,28.57,ESE,112,7.0,9.1,74,99.99,,,75.67,Rainwise IP-100,2013-04-30 06:18:00,
2013-04-30 01:23:00,61.8,53.5,28.56,ESE,112,5.8,8.2,74,99.99,,,99.99,Rainwise IP-100,2013-04-30 06:23:00,
2013-04-30 01:28:00,61.8,53.5,28.56,ESE,112,7.5,10.0,74,99.99,,,99.99,Rainwise IP-100,2013-04-30 06:28:00,
2013-04-30 01:33:00,57.7,53.5,28.56,ESE,112,5.8,10.5,85,99.99,,,99.99,Rainwise IP-100,2013-04-30 06:33:00,
2013-04-30 01:38:00,57.8,53.5,28.56,SSE,157,3.7,11.9,84,99.99,,,53.76,Rainwise IP-100,2013-04-30 06:38:00,
2013-04-30 01:43:00,57.5,53.0,28.56,SE,135,6.5,12.8,84,25.60,,,99.99,Rainwise IP-100,2013-04-30 06:43:00,
2013-04-30 01:48:00,57.0,52.0,28.56,ESE,112,6.3,11.4,84,99.99,,,99.99,Rainwise IP-100,2013-04-30 06:48:00,
2013-04-30 01:53:00,56.3,52.0,28.55,ESE,112,9.8,11.9,84,99.99,,,99.99,Rainwise IP-100,2013-04-30 06:53:00,
2013-04-30 01:58:00,56.1,51.0,28.55,SE,135,10.0,12.4,85,99.99,,,99.99,Rainwise IP-100,2013-04-30 06:58:00,
2013-04-30 02:03:00,56.5,52.0,28.55,SE,135,5.8,15.6,85,99.99,,,99.99,Rainwise IP-100,2013-04-30 07:03:00,
2013-04-30 02:08:00,55.9,51.0,28.55,ESE,112,13.3,13.5,85,99.99,,,99.99,Rainwise IP-100,2013-04-30 07:08:00,
2013-04-30 02:13:00,55.6,51.0,28.54,SE,135,9.6,13.3,85,92.16,,,99.99,Rainwise IP-100,2013-04-30 07:13:00,
2013-04-30 02:18:00,55.2,50.5,28.54,SE,135,11.7,13.8,85,99.99,,,99.99,Rainwise IP-100,2013-04-30 07:18:00,
2013-04-30 02:23:00,55.4,51.0,28.53,SE,135,14.5,19.8,86,99.99,,,99.99,Rainwise IP-100,2013-04-30 07:23:00,
2013-04-30 02:28:00,56.8,53.0,28.54,SE,135,13.1,19.4,86,92.16,,,99.99,Rainwise IP-100,2013-04-30 07:28:00,
2013-04-30 02:33:00,57.0,53.0,28.53,SE,135,9.6,16.6,85,30.72,,,99.99,Rainwise IP-100,2013-04-30 07:33:00,
2013-04-30 02:38:00,55.8,51.0,28.54,SE,135,10.0,15.9,84,76.80,,,99.99,Rainwise IP-100,2013-04-30 07:38:00,
2013-04-30 02:43:00,55.2,50.5,28.54,SE,135,11.2,14.0,85,99.99,,,99.99,Rainwise IP-100,2013-04-30 07:43:00,
2013-04-30 02:48:00,55.6,52.0,28.53,SSE,157,8.6,13.8,86,99.99,,,99.99,Rainwise IP-100,2013-04-30 07:48:00,
2013-04-30 02:53:00,55.1,51.0,28.53,SE,135,12.4,14.7,86,99.99,,,99.99,Rainwise IP-100,2013-04-30 07:53:00,
2013-04-30 02:58:00,54.8,51.0,28.53,SE,135,9.6,15.6,86,5.12,,,99.99,Rainwise IP-100,2013-04-30 07:58:00,
2013-04-30 03:03:00,54.1,50.0,28.52,SE,135,7.9,14.7,86,99.99,,,99.99,Rainwise IP-100,2013-04-30 08:03:00,
2013-04-30 03:08:00,53.2,49.0,28.52,SE,135,11.7,21.7,87,99.99,,,99.99,Rainwise IP-100,2013-04-30 08:08:00,
2013-04-30 03:13:00,53.0,49.0,28.52,SE,135,12.1,18.4,87,99.99,,,99.99,Rainwise IP-100,2013-04-30 08:13:00,
2013-04-30 03:18:00,61.6,53.0,28.51,ESE,112,14.0,15.9,73,99.99,,,9.11,Rainwise IP-100,2013-04-30 08:18:00,
2013-04-30 03:23:00,54.3,51.0,28.51,SE,135,14.7,17.0,88,99.99,,,23.04,Rainwise IP-100,2013-04-30 08:23:00,
2013-04-30 03:28:00,54.5,50.5,28.51,SE,135,12.6,15.9,87,99.99,,,43.52,Rainwise IP-100,2013-04-30 08:28:00,
2013-04-30 03:33:00,54.5,51.0,28.51,SSE,157,7.2,13.8,88,99.99,,,76.80,Rainwise IP-100,2013-04-30 08:33:00,
2013-04-30 03:38:00,54.2,50.5,28.51,SE,135,6.1,13.3,88,99.99,,,99.99,Rainwise IP-100,2013-04-30 08:38:00,
2013-04-30 03:43:00,53.9,50.5,28.50,SE,135,8.2,10.5,88,99.99,,,99.99,Rainwise IP-100,2013-04-30 08:43:00,
2013-04-30 03:48:00,53.8,50.5,28.51,SE,135,6.5,11.0,88,99.99,,,99.99,Rainwise IP-100,2013-04-30 08:48:00,
2013-04-30 03:53:00,54.1,50.5,28.50,SE,135,7.0,9.8,89,99.99,,,99.99,Rainwise IP-100,2013-04-30 08:53:00,
2013-04-30 03:58:00,55.0,52.0,28.50,SE,135,7.0,11.2,89,92.16,,,99.99,Rainwise IP-100,2013-04-30 08:58:00,
2013-04-30 04:03:00,56.1,53.0,28.50,SE,135,5.1,9.6,88,99.99,,,99.99,Rainwise IP-100,2013-04-30 09:03:00,
2013-04-30 04:08:00,57.0,53.5,28.50,SE,135,9.1,10.0,88,99.99,,,99.99,Rainwise IP-100,2013-04-30 09:08:00,
2013-04-30 04:13:00,57.2,53.5,28.50,SE,135,7.7,12.6,87,99.99,,,99.99,Rainwise IP-100,2013-04-30 09:13:00,
2013-04-30 04:18:00,57.7,53.5,28.50,SE,135,6.8,16.6,86,99.99,,,99.99,Rainwise IP-100,2013-04-30 09:18:00,
2013-04-30 04:23:00,57.5,53.5,28.50,SSE,157,4.7,11.9,86,99.99,,,99.99,Rainwise IP-100,2013-04-30 09:23:00,
2013-04-30 04:28:00,56.4,53.0,28.50,SE,135,7.2,9.1,86,99.99,,,99.99,Rainwise IP-100,2013-04-30 09:28:00,
2013-04-30 04:33:00,60.4,53.0,28.49,SE,135,10.7,14.0,75,99.99,,,99.99,Rainwise IP-100,2013-04-30 09:33:00,
2013-04-30 04:38:00,57.4,53.5,28.50,SE,135,8.6,13.5,86,66.56,,,99.99,Rainwise IP-100,2013-04-30 09:38:00,
2013-04-30 04:43:00,60.5,53.0,28.49,SSE,157,8.2,12.4,76,99.99,,,99.99,Rainwise IP-100,2013-04-30 09:43:00,
2013-04-30 04:48:00,57.8,54.0,28.49,SSE,157,8.6,14.5,86,99.99,,,99.99,Rainwise IP-100,2013-04-30 09:48:00,
2013-04-30 04:53:00,57.3,53.5,28.49,SE,135,7.9,13.8,86,99.99,,,99.99,Rainwise IP-100,2013-04-30 09:53:00,
2013-04-30 04:58:00,56.6,53.0,28.48,SSE,157,8.9,12.8,87,99.99,,,99.99,Rainwise IP-100,2013-04-30 09:58:00,
2013-04-30 05:03:00,57.0,53.5,28.48,SSE,157,8.9,16.8,87,99.99,,,99.99,Rainwise IP-100,2013-04-30 10:03:00,
2013-04-30 05:08:00,57.5,54.0,28.48,SSE,157,8.6,15.2,87,99.99,,,99.99,Rainwise IP-100,2013-04-30 10:08:00,
2013-04-30 05:13:00,57.4,54.0,28.48,SSW,202,3.7,13.5,87,99.99,,,99.99,Rainwise IP-100,2013-04-30 10:13:00,
2013-04-30 05:18:00,57.0,53.5,28.48,SSE,157,8.6,12.8,87,61.44,,,99.99,Rainwise IP-100,2013-04-30 10:18:00,
2013-04-30 05:23:00,57.0,53.5,28.48,SSE,157,7.2,12.1,88,61.44,,,99.99,Rainwise IP-100,2013-04-30 10:23:00,
2013-04-30 05:28:00,57.2,53.5,28.48,SSE,157,7.9,8.2,88,46.08,,,99.99,Rainwise IP-100,2013-04-30 10:28:00,
2013-04-30 05:33:00,57.0,53.5,28.48,SSE,157,7.0,10.3,88,15.36,,,99.99,Rainwise IP-100,2013-04-30 10:33:00,
2013-04-30 05:38:00,57.4,54.5,28.48,SSE,157,7.2,11.7,89,46.08,,,0.00,Rainwise IP-100,2013-04-30 10:38:00,
2013-04-30 05:43:00,58.0,55.0,28.48,SSE,157,4.4,11.4,89,61.44,,,5.12,Rainwise IP-100,2013-04-30 10:43:00,
2013-04-30 05:48:00,58.2,55.0,28.48,SSE,157,7.9,14.2,89,46.08,,,7.68,Rainwise IP-100,2013-04-30 10:48:00,
2013-04-30 05:53:00,58.2,55.0,28.48,SE,135,8.9,13.8,89,99.99,,,23.04,Rainwise IP-100,2013-04-30 10:53:00,
2013-04-30 05:58:00,58.1,54.5,28.48,SSE,157,8.9,13.8,88,99.99,,,25.60,Rainwise IP-100,2013-04-30 10:58:00,
2013-04-30 06:03:00,57.9,55.0,28.48,SSE,157,7.9,10.7,89,30.72,,,28.16,Rainwise IP-100,2013-04-30 11:03:00,
2013-04-30 06:08:00,57.5,54.5,28.48,SSE,157,9.3,13.5,89,30.72,,,33.28,Rainwise IP-100,2013-04-30 11:08:00,
2013-04-30 06:13:00,57.2,52.0,28.47,SSE,157,9.8,14.7,82,46.08,,,37.27,Rainwise IP-100,2013-04-30 11:13:00,
2013-04-30 06:18:00,56.4,50.5,28.48,SSE,157,10.5,10.5,81,76.80,,,44.95,Rainwise IP-100,2013-04-30 11:18:00,
2013-04-30 06:23:00,57.6,54.5,28.48,SSE,157,5.4,10.5,90,61.44,,,46.08,Rainwise IP-100,2013-04-30 11:23:00,
2013-04-30 06:28:00,58.5,56.0,28.48,SSE,157,6.8,15.2,90,61.44,,,56.32,Rainwise IP-100,2013-04-30 11:28:00,
2013-04-30 06:33:00,58.6,56.0,28.48,SSW,202,4.0,14.9,89,76.80,,,58.88,Rainwise IP-100,2013-04-30 11:33:00,
2013-04-30 06:38:00,59.0,56.0,28.49,SE,135,5.4,15.4,89,99.99,,,79.36,Rainwise IP-100,2013-04-30 11:38:00,
2013-04-30 06:43:00,59.9,56.5,28.48,WSW,247,1.6,14.5,89,99.99,,,99.99,Rainwise IP-100,2013-04-30 11:43:00,
2013-04-30 06:48:00,56.6,52.0,28.48,SSW,202,13.1,18.2,85,66.56,,,99.99,Rainwise IP-100,2013-04-30 11:48:00,
2013-04-30 06:53:00,57.0,52.0,28.48,South,180,16.3,18.4,84,99.99,,,99.99,Rainwise IP-100,2013-04-30 11:53:00,
2013-04-30 06:58:00,62.0,58.0,28.50,South,180,4.4,17.0,87,99.99,,,99.99,Rainwise IP-100,2013-04-30 11:58:00,
2013-04-30 07:03:00,62.2,57.5,28.50,SSE,157,2.3,18.9,85,99.99,,,99.99,Rainwise IP-100,2013-04-30 12:03:00,
2013-04-30 07:08:00,58.1,53.0,28.49,SSW,202,10.7,18.7,82,99.99,,,99.99,Rainwise IP-100,2013-04-30 12:08:00,
2013-04-30 07:13:00,57.8,53.0,28.48,South,180,11.0,21.0,82,99.99,,,70.55,Rainwise IP-100,2013-04-30 12:13:00,
2013-04-30 07:18:00,58.1,53.0,28.49,SSW,202,12.6,18.0,82,99.99,,,99.99,Rainwise IP-100,2013-04-30 12:18:00,
2013-04-30 07:23:00,61.7,56.5,28.50,SSE,157,4.4,17.5,84,99.99,,,99.99,Rainwise IP-100,2013-04-30 12:23:00,
2013-04-30 07:28:00,61.7,56.5,28.50,NNE,22,2.1,16.8,84,61.44,,,99.99,Rainwise IP-100,2013-04-30 12:28:00,
2013-04-30 07:33:00,61.7,56.5,28.50,South,180,4.2,16.6,83,99.99,,,99.99,Rainwise IP-100,2013-04-30 12:33:00,
2013-04-30 07:38:00,61.6,56.5,28.51,South,180,3.7,13.1,83,99.99,,,99.99,Rainwise IP-100,2013-04-30 12:38:00,
2013-04-30 07:43:00,61.6,56.5,28.51,SSW,202,3.0,15.6,83,99.99,,,99.99,Rainwise IP-100,2013-04-30 12:43:00,
2013-04-30 07:48:00,59.2,53.5,28.50,South,180,11.9,15.4,82,99.99,,,99.99,Rainwise IP-100,2013-04-30 12:48:00,
2013-04-30 07:53:00,59.5,53.5,28.50,SSW,202,10.5,16.3,81,99.99,,,99.99,Rainwise IP-100,2013-04-30 12:53:00,
2013-04-30 07:58:00,62.8,57.5,28.51,South,180,7.7,15.4,82,99.99,,,99.99,Rainwise IP-100,2013-04-30 12:58:00,
2013-04-30 08:03:00,64.0,58.0,28.52,SSW,202,2.3,13.1,82,99.99,,,15.36,Rainwise IP-100,2013-04-30 13:03:00,
2013-04-30 08:08:00,65.3,59.5,28.52,SSW,202,2.1,12.1,81,99.99,,,20.48,Rainwise IP-100,2013-04-30 13:08:00,
2013-04-30 08:13:00,66.1,59.0,28.52,SW,225,8.4,11.2,78,61.44,,,25.60,Rainwise IP-100,2013-04-30 13:13:00,
2013-04-30 08:18:00,66.7,59.0,28.52,WSW,247,11.0,17.5,76,99.99,,,53.76,Rainwise IP-100,2013-04-30 13:18:00,
2013-04-30 08:23:00,67.2,57.5,28.53,SW,225,13.1,20.1,72,99.99,,,87.04,Rainwise IP-100,2013-04-30 13:23:00,
2013-04-30 08:28:00,67.1,56.5,28.53,SW,225,7.9,17.0,69,99.99,,,99.84,Rainwise IP-100,2013-04-30 13:28:00,
2013-04-30 08:33:00,66.6,55.0,28.54,WSW,247,5.1,18.0,67,99.99,,,99.99,Rainwise IP-100,2013-04-30 13:33:00,
2013-04-30 08:38:00,66.1,54.0,28.53,WSW,247,5.8,17.5,65,99.99,,,99.99,Rainwise IP-100,2013-04-30 13:38:00,
2013-04-30 08:43:00,65.7,53.0,28.55,WSW,247,7.9,19.1,63,99.99,,,99.99,Rainwise IP-100,2013-04-30 13:43:00,
2013-04-30 08:48:00,65.6,52.0,28.55,WSW,247,18.2,20.8,62,99.99,,,99.99,Rainwise IP-100,2013-04-30 13:48:00,
2013-04-30 08:53:00,66.9,51.0,28.54,WSW,247,4.2,18.9,56,99.99,,,99.99,Rainwise IP-100,2013-04-30 13:53:00,
2013-04-30 08:58:00,65.4,50.5,28.56,West,270,10.5,18.7,59,99.99,,,99.99,Rainwise IP-100,2013-04-30 13:58:00,
2013-04-30 09:03:00,65.2,50.5,28.56,SW,225,14.0,20.8,59,99.99,,,99.99,Rainwise IP-100,2013-04-30 14:03:00,
2013-04-30 09:08:00,65.0,50.5,28.56,WSW,247,10.0,19.4,59,99.99,,,99.99,Rainwise IP-100,2013-04-30 14:08:00,
2013-04-30 09:13:00,64.8,50.5,28.56,SW,225,12.6,20.5,59,99.99,,,99.99,Rainwise IP-100,2013-04-30 14:13:00,
2013-04-30 09:18:00,64.5,50.0,28.57,WNW,292,5.1,15.6,59,99.99,,,99.99,Rainwise IP-100,2013-04-30 14:18:00,
2013-04-30 09:23:00,64.2,49.0,28.56,WSW,247,6.3,18.2,59,83.58,,,99.99,Rainwise IP-100,2013-04-30 14:23:00,
2013-04-30 09:28:00,63.8,49.0,28.57,WSW,247,3.5,13.8,59,30.72,,,99.99,Rainwise IP-100,2013-04-30 14:28:00,
2013-04-30 09:33:00,63.4,49.0,28.58,SW,225,18.2,18.7,59,99.99,,,99.99,Rainwise IP-100,2013-04-30 14:33:00,
2013-04-30 09:38:00,63.4,49.0,28.59,West,270,14.0,20.1,59,35.84,,,99.99,Rainwise IP-100,2013-04-30 14:38:00,
2013-04-30 09:43:00,63.2,48.0,28.60,SW,225,9.3,21.5,59,99.99,,,99.99,Rainwise IP-100,2013-04-30 14:43:00,
2013-04-30 09:48:00,62.8,48.0,28.60,WSW,247,6.5,17.0,59,99.99,,,99.99,Rainwise IP-100,2013-04-30 14:48:00,
2013-04-30 09:53:00,62.5,48.0,28.59,NNW,337,10.5,27.5,59,99.99,,,0.00,Rainwise IP-100,2013-04-30 14:53:00,
2013-04-30 09:58:00,62.4,48.0,28.61,WNW,292,6.8,18.4,59,99.99,,,38.40,Rainwise IP-100,2013-04-30 14:58:00,
2013-04-30 10:03:00,62.4,48.0,28.62,SW,225,11.2,15.6,59,99.99,,,81.92,Rainwise IP-100,2013-04-30 15:03:00,
2013-04-30 10:08:00,62.3,48.0,28.62,SSW,202,6.1,17.0,59,99.99,,,92.16,Rainwise IP-100,2013-04-30 15:08:00,
2013-04-30 10:13:00,62.1,47.5,28.62,WNW,292,0.0,18.2,59,99.99,,,99.99,Rainwise IP-100,2013-04-30 15:13:00,
2013-04-30 10:18:00,61.9,47.5,28.63,WSW,247,6.8,21.9,59,99.99,,,99.99,Rainwise IP-100,2013-04-30 15:18:00,
2013-04-30 10:23:00,61.5,47.0,28.64,SW,225,12.1,19.4,59,99.99,,,99.99,Rainwise IP-100,2013-04-30 15:23:00,
2013-04-30 10:28:00,60.8,47.0,28.63,WSW,247,7.7,17.0,60,99.99,,,99.99,Rainwise IP-100,2013-04-30 15:28:00,
2013-04-30 10:33:00,60.3,47.0,28.64,SW,225,7.9,18.0,61,99.99,,,99.99,Rainwise IP-100,2013-04-30 15:33:00,
2013-04-30 10:38:00,59.9,47.0,28.64,West,270,6.1,14.5,61,99.99,,,99.99,Rainwise IP-100,2013-04-30 15:38:00,
2013-04-30 10:43:00,59.6,47.0,28.65,West,270,6.8,18.9,62,99.99,,,99.99,Rainwise IP-100,2013-04-30 15:43:00,
2013-04-30 10:49:00,59.7,47.0,28.66,WNW,292,3.0,14.7,62,99.99,,,99.99,Rainwise IP-100,2013-04-30 15:49:00,
2013-04-30 10:54:00,59.7,47.0,28.67,SW,225,2.6,17.7,62,99.99,,,99.99,Rainwise IP-100,2013-04-30 15:54:00,
2013-04-30 10:59:00,59.8,47.0,28.67,WSW,247,7.2,15.4,62,99.99,,,99.99,Rainwise IP-100,2013-04-30 15:59:00,
2013-04-30 11:04:00,60.3,47.0,28.67,West,270,2.8,16.6,61,61.44,,,99.99,Rainwise IP-100,2013-04-30 16:04:00,
2013-04-30 11:09:00,60.8,47.0,28.66,SW,225,1.2,13.8,60,61.44,,,99.99,Rainwise IP-100,2013-04-30 16:09:00,
2013-04-30 11:14:00,61.0,47.0,28.67,WNW,292,9.6,17.5,59,0.00,,,99.99,Rainwise IP-100,2013-04-30 16:14:00,
2013-04-30 11:19:00,61.0,47.0,28.67,West,270,5.1,18.9,59,0.00,,,99.99,Rainwise IP-100,2013-04-30 16:19:00,
2013-04-30 11:24:00,60.8,46.0,28.69,WNW,292,16.8,21.7,58,99.99,,,99.99,Rainwise IP-100,2013-04-30 16:24:00,
2013-04-30 11:29:00,60.5,45.0,28.69,WNW,292,9.6,21.7,57,99.99,,,99.99,Rainwise IP-100,2013-04-30 16:29:00,
2013-04-30 11:34:00,60.1,45.0,28.69,WNW,292,6.3,21.7,57,61.44,,,99.99,Rainwise IP-100,2013-04-30 16:34:00,
2013-04-30 11:39:00,59.9,45.0,28.69,North,360,2.3,17.5,58,76.80,,,99.99,Rainwise IP-100,2013-04-30 16:39:00,
2013-04-30 11:44:00,59.9,45.0,28.68,SW,225,2.8,18.7,58,92.16,,,99.99,Rainwise IP-100,2013-04-30 16:44:00,
2013-04-30 11:49:00,60.1,45.0,28.69,West,270,10.5,19.8,58,30.72,,,99.99,Rainwise IP-100,2013-04-30 16:49:00,
2013-04-30 11:54:00,60.2,45.0,28.69,South,180,1.2,18.9,58,92.16,,,99.99,Rainwise IP-100,2013-04-30 16:54:00,
2013-04-30 11:59:00,60.4,46.0,28.71,South,180,5.8,15.4,58,92.16,,,99.99,Rainwise IP-100,2013-04-30 16:59:00,
2013-04-30 12:04:00,60.5,46.0,28.71,WSW,247,8.6,22.2,58,92.16,,,99.99,Rainwise IP-100,2013-04-30 17:04:00,
2013-04-30 12:09:00,60.7,45.0,28.71,West,270,12.8,17.7,57,99.99,,,99.99,Rainwise IP-100,2013-04-30 17:09:00,
2013-04-30 12:14:00,61.0,46.0,28.72,West,270,9.8,13.5,57,76.80,,,99.99,Rainwise IP-100,2013-04-30 17:14:00,
2013-04-30 12:19:00,61.4,46.0,28.72,East,90,1.4,18.4,57,46.08,,,99.99,Rainwise IP-100,2013-04-30 17:19:00,
2013-04-30 12:24:00,61.6,46.0,28.72,WSW,247,1.9,15.4,56,61.44,,,99.99,Rainwise IP-100,2013-04-30 17:24:00,
2013-04-30 12:29:00,61.8,46.0,28.72,West,270,3.7,20.5,55,15.36,,,99.99,Rainwise IP-100,2013-04-30 17:29:00,
2013-04-30 12:34:00,62.0,45.0,28.74,West,270,4.2,18.2,54,30.72,,,99.99,Rainwise IP-100,2013-04-30 17:34:00,
2013-04-30 12:39:00,61.9,45.0,28.73,WNW,292,17.5,20.8,53,46.08,,,99.99,Rainwise IP-100,2013-04-30 17:39:00,
2013-04-30 12:44:00,61.8,44.0,28.73,SW,225,7.2,25.9,52,76.80,,,99.99,Rainwise IP-100,2013-04-30 17:44:00,
2013-04-30 12:49:00,61.7,43.0,28.72,WNW,292,17.7,25.4,51,99.99,,,99.99,Rainwise IP-100,2013-04-30 17:49:00,
2013-04-30 12:54:00,61.6,43.0,28.71,WNW,292,18.7,21.7,50,99.99,,,99.99,Rainwise IP-100,2013-04-30 17:54:00,
2013-04-30 12:59:00,61.5,42.0,28.71,NW,315,13.5,23.3,49,99.99,,,99.99,Rainwise IP-100,2013-04-30 17:59:00,
2013-04-30 13:04:00,61.5,42.0,28.70,NW,315,11.4,19.1,49,99.99,,,99.99,Rainwise IP-100,2013-04-30 18:04:00,
2013-04-30 13:09:00,61.6,42.0,28.71,WNW,292,14.7,17.7,49,0.00,,,99.99,Rainwise IP-100,2013-04-30 18:09:00,
2013-04-30 13:14:00,61.6,43.0,28.70,WNW,292,11.2,15.9,50,0.00,,,99.99,Rainwise IP-100,2013-04-30 18:14:00,
2013-04-30 13:19:00,61.5,43.0,28.72,West,270,7.2,22.6,51,46.08,,,99.99,Rainwise IP-100,2013-04-30 18:19:00,
2013-04-30 13:24:00,61.5,43.0,28.72,West,270,5.6,17.3,51,92.16,,,99.99,Rainwise IP-100,2013-04-30 18:24:00,
2013-04-30 13:29:00,61.6,44.0,28.73,WNW,292,1.9,13.8,52,46.08,,,99.99,Rainwise IP-100,2013-04-30 18:29:00,
2013-04-30 13:34:00,61.8,44.0,28.74,South,180,3.7,13.8,52,15.36,,,99.99,Rainwise IP-100,2013-04-30 18:34:00,
2013-04-30 13:39:00,62.0,44.0,28.75,WSW,247,6.8,17.5,51,76.80,,,99.99,Rainwise IP-100,2013-04-30 18:39:00,
2013-04-30 13:44:00,61.9,44.0,28.76,WNW,292,8.6,12.6,51,99.99,,,99.99,Rainwise IP-100,2013-04-30 18:44:00,
2013-04-30 13:49:00,62.0,44.0,28.76,West,270,7.7,12.8,51,46.08,,,99.99,Rainwise IP-100,2013-04-30 18:49:00,
2013-04-30 13:54:00,62.1,43.0,28.76,SW,225,10.3,12.8,50,0.00,,,99.99,Rainwise IP-100,2013-04-30 18:54:00,
2013-04-30 13:59:00,62.1,43.0,28.74,WNW,292,13.5,15.9,50,30.72,,,99.99,Rainwise IP-100,2013-04-30 18:59:00,
2013-04-30 14:04:00,62.2,43.0,28.76,West,270,7.0,18.0,50,46.08,,,99.99,Rainwise IP-100,2013-04-30 19:04:00,
2013-04-30 14:09:00,62.3,44.0,28.76,WNW,292,7.9,18.7,50,30.72,,,99.99,Rainwise IP-100,2013-04-30 19:09:00,
2013-04-30 14:14:00,62.2,43.0,28.75,SW,225,2.8,17.0,50,15.36,,,99.99,Rainwise IP-100,2013-04-30 19:14:00,
2013-04-30 14:19:00,62.0,43.0,28.76,West,270,4.0,18.0,50,0.00,,,99.99,Rainwise IP-100,2013-04-30 19:19:00,
2013-04-30 14:24:00,62.1,43.0,28.75,West,270,4.0,16.3,50,0.00,,,99.99,Rainwise IP-100,2013-04-30 19:24:00,
2013-04-30 14:29:00,62.2,43.0,28.76,WSW,247,3.3,15.2,50,0.00,,,99.99,Rainwise IP-100,2013-04-30 19:29:00,
2013-04-30 14:34:00,62.2,43.0,28.76,WSW,247,7.7,12.1,50,0.00,,,99.99,Rainwise IP-100,2013-04-30 19:34:00,
2013-04-30 14:39:00,62.4,43.0,28.76,WSW,247,4.9,10.3,49,0.00,,,99.99,Rainwise IP-100,2013-04-30 19:39:00,
2013-04-30 14:44:00,62.4,43.0,28.77,West,270,10.5,12.6,49,0.00,,,99.99,Rainwise IP-100,2013-04-30 19:44:00,
2013-04-30 14:49:00,62.6,43.0,28.79,SW,225,1.4,11.9,49,0.00,,,99.99,Rainwise IP-100,2013-04-30 19:49:00,
2013-04-30 14:54:00,63.1,42.0,28.79,West,270,7.9,12.4,47,0.00,,,99.99,Rainwise IP-100,2013-04-30 19:54:00,
2013-04-30 14:59:00,63.4,42.0,28.79,WSW,247,4.9,11.0,46,0.00,,,99.99,Rainwise IP-100,2013-04-30 19:59:00,
2013-04-30 15:04:00,63.6,42.0,28.80,SW,225,7.9,9.1,45,0.00,,,99.99,Rainwise IP-100,2013-04-30 20:04:00,
2013-04-30 15:09:00,63.7,41.0,28.80,WSW,247,3.7,13.3,44,0.00,,,99.99,Rainwise IP-100,2013-04-30 20:09:00,
2013-04-30 15:14:00,63.7,40.0,28.81,SW,225,6.3,10.3,43,0.00,,,99.99,Rainwise IP-100,2013-04-30 20:14:00,
2013-04-30 15:19:00,63.7,39.0,28.78,West,270,5.6,12.8,41,0.00,,,99.99,Rainwise IP-100,2013-04-30 20:19:00,
2013-04-30 15:24:00,63.6,38.0,28.77,NW,315,2.6,12.1,39,0.00,,,99.99,Rainwise IP-100,2013-04-30 20:24:00,
2013-04-30 15:29:00,63.2,38.0,28.78,WSW,247,8.6,10.7,39,0.00,,,99.99,Rainwise IP-100,2013-04-30 20:29:00,
2013-04-30 15:34:00,63.3,37.0,28.78,WSW,247,8.4,14.2,38,0.00,,,99.99,Rainwise IP-100,2013-04-30 20:34:00,
2013-04-30 15:39:00,63.8,36.0,28.78,West,270,5.6,12.4,35,0.00,,,99.99,Rainwise IP-100,2013-04-30 20:39:00,
2013-04-30 15:44:00,64.0,35.0,28.78,West,270,3.5,14.0,34,0.00,,,99.99,Rainwise IP-100,2013-04-30 20:44:00,
2013-04-30 15:49:00,64.1,35.0,28.78,West,270,2.1,14.0,33,30.72,,,99.99,Rainwise IP-100,2013-04-30 20:49:00,
2013-04-30 15:54:00,64.2,35.0,28.79,West,270,12.1,14.5,33,30.72,,,99.99,Rainwise IP-100,2013-04-30 20:54:00,
2013-04-30 15:59:00,64.3,35.0,28.81,WNW,292,6.1,12.1,33,0.00,,,99.99,Rainwise IP-100,2013-04-30 20:59:00,
2013-04-30 16:04:00,64.4,35.0,28.82,WNW,292,5.4,12.6,33,0.00,,,99.99,Rainwise IP-100,2013-04-30 21:04:00,
2013-04-30 16:09:00,64.5,36.0,28.81,WSW,247,5.6,10.5,34,0.00,,,99.99,Rainwise IP-100,2013-04-30 21:09:00,
2013-04-30 16:14:00,64.4,36.0,28.81,WNW,292,1.6,9.3,34,0.00,,,99.99,Rainwise IP-100,2013-04-30 21:14:00,
2013-04-30 16:19:00,64.3,35.0,28.82,WNW,292,3.3,17.0,33,0.00,,,99.99,Rainwise IP-100,2013-04-30 21:19:00,
2013-04-30 16:24:00,64.1,35.0,28.83,West,270,6.5,7.9,33,0.00,,,99.99,Rainwise IP-100,2013-04-30 21:24:00,
2013-04-30 16:29:00,64.2,33.0,28.83,West,270,6.5,15.2,32,15.36,,,99.99,Rainwise IP-100,2013-04-30 21:29:00,
2013-04-30 16:34:00,64.3,35.0,28.83,West,270,3.0,13.3,32,76.80,,,99.99,Rainwise IP-100,2013-04-30 21:34:00,
2013-04-30 16:39:00,64.2,33.0,28.84,WSW,247,6.8,11.9,31,61.44,,,99.99,Rainwise IP-100,2013-04-30 21:39:00,
2013-04-30 16:44:00,64.1,33.0,28.85,West,270,5.1,11.7,31,0.00,,,99.99,Rainwise IP-100,2013-04-30 21:44:00,
2013-04-30 16:49:00,64.0,33.0,28.86,WNW,292,2.1,12.4,31,8.64,,,99.99,Rainwise IP-100,2013-04-30 21:49:00,
2013-04-30 16:54:00,64.0,33.0,28.85,WSW,247,9.1,12.6,31,15.36,,,99.99,Rainwise IP-100,2013-04-30 21:54:00,
2013-04-30 16:59:00,64.2,33.0,28.86,WSW,247,3.3,9.8,31,6.72,,,99.99,Rainwise IP-100,2013-04-30 21:59:00,
2013-04-30 17:04:00,64.1,33.0,28.86,NW,315,3.5,15.4,32,0.00,,,99.99,Rainwise IP-100,2013-04-30 22:04:00,
2013-04-30 17:09:00,63.9,33.0,28.86,WSW,247,7.2,11.9,32,0.00,,,99.99,Rainwise IP-100,2013-04-30 22:09:00,
2013-04-30 17:14:00,64.0,33.0,28.86,West,270,4.9,11.4,32,0.00,,,99.99,Rainwise IP-100,2013-04-30 22:14:00,
2013-04-30 17:19:00,64.0,33.0,28.87,WSW,247,6.3,13.8,32,15.36,,,99.99,Rainwise IP-100,2013-04-30 22:19:00,
2013-04-30 17:24:00,64.1,32.0,28.86,West,270,9.6,13.8,30,61.44,,,99.99,Rainwise IP-100,2013-04-30 22:24:00,
2013-04-30 17:29:00,64.1,31.0,28.87,SW,225,11.0,12.6,29,61.44,,,99.99,Rainwise IP-100,2013-04-30 22:29:00,
2013-04-30 17:34:00,63.8,31.0,28.87,West,270,3.0,13.8,29,30.72,,,99.99,Rainwise IP-100,2013-04-30 22:34:00,
2013-04-30 17:39:00,63.8,31.0,28.87,WNW,292,4.2,10.3,29,15.36,,,99.99,Rainwise IP-100,2013-04-30 22:39:00,
2013-04-30 17:44:00,64.2,31.0,28.88,SW,225,4.0,14.0,29,0.00,,,99.99,Rainwise IP-100,2013-04-30 22:44:00,
2013-04-30 17:49:00,64.5,32.0,28.89,WNW,292,8.6,10.7,29,0.00,,,99.99,Rainwise IP-100,2013-04-30 22:49:00,
2013-04-30 17:54:00,64.7,29.0,28.89,West,270,4.0,14.0,27,0.00,,,99.99,Rainwise IP-100,2013-04-30 22:54:00,
2013-04-30 17:59:00,64.8,29.0,28.88,West,270,7.7,13.1,25,15.36,,,99.99,Rainwise IP-100,2013-04-30 22:59:00,
2013-04-30 18:04:00,64.7,28.0,28.89,WSW,247,6.3,16.1,24,99.99,,,99.99,Rainwise IP-100,2013-04-30 23:04:00,
2013-04-30 18:09:00,64.5,28.0,28.90,WSW,247,4.9,13.1,24,92.16,,,99.99,Rainwise IP-100,2013-04-30 23:09:00,
2013-04-30 18:14:00,64.5,28.0,28.90,West,270,3.3,9.6,24,0.00,,,99.99,Rainwise IP-100,2013-04-30 23:14:00,
2013-04-30 18:19:00,64.3,28.0,28.90,WSW,247,7.7,14.5,25,0.00,,,99.99,Rainwise IP-100,2013-04-30 23:19:00,
2013-04-30 18:24:00,63.7,28.0,28.90,WSW,247,3.5,9.6,26,0.00,,,99.99,Rainwise IP-100,2013-04-30 23:24:00,
2013-04-30 18:29:00,63.5,29.0,28.90,West,270,1.9,6.1,27,0.00,,,99.99,Rainwise IP-100,2013-04-30 23:29:00,
2013-04-30 18:34:00,63.5,28.0,28.90,SW,225,4.4,8.6,26,0.00,,,99.99,Rainwise IP-100,2013-04-30 23:34:00,
2013-04-30 18:39:00,63.4,28.0,28.90,WSW,247,3.5,9.3,26,0.00,,,99.99,Rainwise IP-100,2013-04-30 23:39:00,
2013-04-30 18:44:00,63.5,28.0,28.91,WNW,292,3.0,10.7,26,0.00,,,99.99,Rainwise IP-100,2013-04-30 23:44:00,
2013-04-30 18:49:00,63.4,28.0,28.91,SSW,202,0.0,11.0,26,0.00,,,99.99,Rainwise IP-100,2013-04-30 23:49:00,
2013-04-30 18:54:00,63.2,29.0,28.91,WNW,292,1.6,9.3,27,0.00,,,99.99,Rainwise IP-100,2013-04-30 23:54:00,
2013-04-30 18:59:00,62.9,29.0,28.91,West,270,4.0,7.7,27,0.00,,,99.99,Rainwise IP-100,2013-04-30 23:59:00,
2013-04-30 19:04:00,62.7,29.0,28.91,West,270,6.1,9.6,28,0.00,,,99.99,Rainwise IP-100,2013-05-01 00:04:00,
2013-04-30 19:09:00,62.5,31.0,28.90,NW,315,3.7,12.6,29,0.00,,,99.99,Rainwise IP-100,2013-05-01 00:09:00,
2013-04-30 19:14:00,62.2,29.0,28.90,West,270,3.7,10.5,29,0.00,,,99.99,Rainwise IP-100,2013-05-01 00:14:00,
2013-04-30 19:19:00,61.8,31.0,28.90,WSW,247,4.7,7.9,31,0.00,,,99.99,Rainwise IP-100,2013-05-01 00:19:00,
2013-04-30 19:24:00,61.7,31.0,28.90,WNW,292,3.0,11.0,31,0.00,,,99.99,Rainwise IP-100,2013-05-01 00:24:00,
2013-04-30 19:29:00,61.5,32.0,28.90,West,270,6.5,9.6,32,0.00,,,99.99,Rainwise IP-100,2013-05-01 00:29:00,
2013-04-30 19:34:00,61.2,32.0,28.90,SSW,202,2.6,6.5,33,0.00,,,99.99,Rainwise IP-100,2013-05-01 00:34:00,
2013-04-30 19:39:00,60.9,32.0,28.90,West,270,5.8,9.1,34,0.00,,,99.99,Rainwise IP-100,2013-05-01 00:39:00,
2013-04-30 19:44:00,60.9,32.0,28.91,NW,315,2.3,10.3,34,0.00,,,99.99,Rainwise IP-100,2013-05-01 00:44:00,
2013-04-30 19:49:00,61.1,32.0,28.90,NW,315,2.3,13.1,33,0.00,,,99.99,Rainwise IP-100,2013-05-01 00:49:00,
2013-04-30 19:54:00,60.9,32.0,28.91,SW,225,2.6,7.9,34,0.00,,,99.99,Rainwise IP-100,2013-05-01 00:54:00,
2013-04-30 19:59:00,60.6,33.0,28.91,WNW,292,2.1,8.6,35,0.00,,,99.99,Rainwise IP-100,2013-05-01 00:59:00,
2013-04-30 20:04:00,60.3,33.0,28.91,WSW,247,3.5,10.0,36,0.00,,,99.99,Rainwise IP-100,2013-05-01 01:04:00,
2013-04-30 20:09:00,59.9,35.0,28.91,SSW,202,4.7,10.3,38,0.00,,,99.99,Rainwise IP-100,2013-05-01 01:09:00,
2013-04-30 20:14:00,59.6,35.0,28.91,WNW,292,8.9,13.8,39,0.00,,,99.99,Rainwise IP-100,2013-05-01 01:14:00,
2013-04-30 20:19:00,59.5,35.0,28.90,WNW,292,14.0,16.1,39,0.00,,,99.99,Rainwise IP-100,2013-05-01 01:19:00,
2013-04-30 20:24:00,59.7,35.0,28.91,WNW,292,12.6,16.1,39,0.00,,,99.99,Rainwise IP-100,2013-05-01 01:24:00,
2013-04-30 20:29:00,59.7,33.0,28.92,WNW,292,3.7,14.7,38,0.00,,,99.99,Rainwise IP-100,2013-05-01 01:29:00,
2013-04-30 20:34:00,59.4,33.0,28.91,WNW,292,12.8,13.8,38,0.00,,,99.99,Rainwise IP-100,2013-05-01 01:34:00,
2013-04-30 20:39:00,59.0,33.0,28.91,NW,315,5.6,12.8,38,0.00,,,99.99,Rainwise IP-100,2013-05-01 01:39:00,
2013-04-30 20:44:00,58.5,35.0,28.91,WNW,292,4.9,10.7,39,0.00,,,99.99,Rainwise IP-100,2013-05-01 01:44:00,
2013-04-30 20:49:00,58.1,33.0,28.92,West,270,9.3,11.2,39,0.00,,,99.99,Rainwise IP-100,2013-05-01 01:49:00,
2013-04-30 20:54:00,58.0,33.0,28.92,WNW,292,7.5,12.4,39,0.00,,,99.99,Rainwise IP-100,2013-05-01 01:54:00,
2013-04-30 20:59:00,58.1,33.0,28.92,WNW,292,7.5,12.1,38,0.00,,,99.99,Rainwise IP-100,2013-05-01 01:59:00,
2013-04-30 21:04:00,57.8,33.0,28.92,WNW,292,8.6,10.5,39,0.00,,,99.99,Rainwise IP-100,2013-05-01 02:04:00,
2013-04-30 21:09:00,57.7,33.0,28.93,West,270,4.9,11.0,40,0.00,,,99.99,Rainwise IP-100,2013-05-01 02:09:00,
2013-04-30 21:14:00,57.7,33.0,28.93,NW,315,8.9,11.9,40,0.00,,,99.99,Rainwise IP-100,2013-05-01 02:14:00,
2013-04-30 21:19:00,57.8,35.0,28.93,NW,315,6.3,11.9,41,0.00,,,99.99,Rainwise IP-100,2013-05-01 02:19:00,
2013-04-30 21:24:00,57.7,35.0,28.94,WNW,292,7.5,8.9,41,0.00,,,99.99,Rainwise IP-100,2013-05-01 02:24:00,
2013-04-30 21:29:00,57.5,35.0,28.94,NW,315,6.5,11.2,42,0.00,,,99.99,Rainwise IP-100,2013-05-01 02:29:00,
2013-04-30 21:34:00,57.3,35.0,28.94,WNW,292,7.2,10.5,42,0.00,,,99.99,Rainwise IP-100,2013-05-01 02:34:00,
2013-04-30 21:39:00,57.1,35.0,28.95,WNW,292,6.5,8.4,43,0.00,,,99.99,Rainwise IP-100,2013-05-01 02:39:00,
2013-04-30 21:44:00,56.8,36.0,28.95,NNW,337,3.7,9.1,44,0.00,,,99.99,Rainwise IP-100,2013-05-01 02:44:00,
2013-04-30 21:49:00,56.8,36.0,28.95,WNW,292,8.9,11.7,44,0.00,,,99.99,Rainwise IP-100,2013-05-01 02:49:00,
2013-04-30 21:54:00,57.0,36.0,28.95,NW,315,7.7,12.8,44,0.00,,,99.99,Rainwise IP-100,2013-05-01 02:54:00,
2013-04-30 21:59:00,57.0,36.0,28.96,WNW,292,7.7,9.8,44,0.00,,,99.99,Rainwise IP-100,2013-05-01 02:59:00,
2013-04-30 22:04:00,56.9,36.0,28.96,NW,315,5.8,9.1,44,0.00,,,99.99,Rainwise IP-100,2013-05-01 03:04:00,
2013-04-30 22:09:00,56.7,36.0,28.97,WNW,292,4.4,6.1,45,0.00,,,99.99,Rainwise IP-100,2013-05-01 03:09:00,
2013-04-30 22:14:00,56.5,36.0,28.97,WNW,292,7.2,8.9,45,0.00,,,99.99,Rainwise IP-100,2013-05-01 03:14:00,
2013-04-30 22:19:00,56.4,36.0,28.97,NW,315,7.2,9.8,46,0.00,,,99.99,Rainwise IP-100,2013-05-01 03:19:00,
2013-04-30 22:24:00,56.3,37.0,28.98,WNW,292,8.4,11.0,47,0.00,,,99.99,Rainwise IP-100,2013-05-01 03:24:00,
2013-04-30 22:29:00,56.3,37.0,28.98,WNW,292,7.9,11.4,48,0.00,,,99.99,Rainwise IP-100,2013-05-01 03:29:00,
2013-04-30 22:34:00,56.2,37.0,28.99,WNW,292,4.7,10.0,48,0.00,,,99.99,Rainwise IP-100,2013-05-01 03:34:00,
2013-04-30 22:39:00,56.1,37.0,28.99,WNW,292,5.1,9.3,49,0.00,,,99.99,Rainwise IP-100,2013-05-01 03:39:00,
2013-04-30 22:42:00,56.1,37.0,28.98,WNW,292,7.0,11.2,49,0.00,,,99.99,Rainwise IP-100,2013-05-01 03:42:00,
2013-04-30 22:47:00,56.1,37.0,28.99,WNW,292,7.2,11.2,49,0.00,,,99.99,Rainwise IP-100,2013-05-01 03:47:00,
2013-04-30 22:52:00,56.1,37.0,28.99,WNW,292,7.7,9.6,49,0.00,,,99.99,Rainwise IP-100,2013-05-01 03:52:00,
2013-04-30 22:57:00,55.9,38.0,28.99,NW,315,8.9,15.9,50,0.00,,,99.99,Rainwise IP-100,2013-05-01 03:57:00,
2013-04-30 23:01:00,55.8,38.0,28.99,WNW,292,11.4,15.9,50,0.00,,,99.99,Rainwise IP-100,2013-05-01 04:01:00,
2013-04-30 23:06:00,55.6,38.0,29.00,NW,315,11.2,17.3,50,0.00,,,99.99,Rainwise IP-100,2013-05-01 04:06:00,
2013-04-30 23:11:00,55.6,37.0,29.00,NW,315,5.8,15.2,49,0.00,,,99.99,Rainwise IP-100,2013-05-01 04:11:00,
2013-04-30 23:16:00,55.4,37.0,29.00,NW,315,7.0,12.1,50,0.00,,,99.99,Rainwise IP-100,2013-05-01 04:16:00,
2013-04-30 23:21:00,55.3,37.0,29.00,NW,315,4.9,12.8,50,0.00,,,99.99,Rainwise IP-100,2013-05-01 04:21:00,
2013-04-30 23:26:00,55.1,37.0,29.00,WSW,247,7.0,15.6,49,0.00,,,99.99,Rainwise IP-100,2013-05-01 04:26:00,
2013-04-30 23:31:00,54.9,37.0,29.01,NW,315,11.0,15.4,49,15.36,,,99.99,Rainwise IP-100,2013-05-01 04:31:00,
2013-04-30 23:36:00,54.7,36.0,29.01,WNW,292,10.3,15.2,49,15.36,,,99.99,Rainwise IP-100,2013-05-01 04:36:00,
2013-04-30 23:41:00,54.5,36.0,29.02,WNW,292,11.2,13.5,49,0.00,,,99.99,Rainwise IP-100,2013-05-01 04:41:00,
2013-04-30 23:46:00,54.4,36.0,29.03,WNW,292,8.2,14.9,49,0.00,,,99.99,Rainwise IP-100,2013-05-01 04:46:00,
2013-04-30 23:51:00,54.2,36.0,29.03,WSW,247,8.2,13.8,49,0.00,,,99.99,Rainwise IP-100,2013-05-01 04:51:00,
2013-04-30 23:56:00,54.0,36.0,29.04,North,360,3.3,13.1,50,30.72,,,99.99,Rainwise IP-100,2013-05-01 04:56:00,